This is the latest recevied weather packets stored in our database for station/object KC4GS-13. If no packets are shown the sender has not sent any weather packets the latest 10 day(s).
| Time | Temp. | Humidity | Pressure | Rain* | Wind** | Luminosity | Snow |
|---|---|---|---|---|---|---|---|
| 1778165123 | 18.89° C | 99% | 1012.5 hPa | 6.1 mm | - | 50 W/m² | - |
| 1778164821 | 18.89° C | 99% | 1012.1 hPa | 13.72 mm | - | 43 W/m² | - |
| 1778164517 | 18.89° C | 99% | 1012.6 hPa | 15.49 mm | - | 35 W/m² | - |
| 1778164209 | 19.44° C | 99% | 1012.4 hPa | 10.16 mm | - | 17 W/m² | - |
| 1778163904 | 20° C | 99% | 1012.1 hPa | 1.27 mm | - | 3 W/m² | - |
| 1778163602 | 20° C | 99% | 1012.3 hPa | 0 mm | - | 1 W/m² | - |
| 1778163297 | 20° C | 99% | 1011.2 hPa | 0 mm | - | 4 W/m² | - |
| 1778162994 | 20° C | 99% | 1010.9 hPa | 1.78 mm | - | 9 W/m² | - |
| 1778162691 | 20° C | 99% | 1010.8 hPa | 7.87 mm | - | 23 W/m² | - |
| 1778162388 | 20° C | 99% | 1011.1 hPa | 109.73 mm | - | 11 W/m² | - |
| 1778162085 | 20° C | 99% | 1011.4 hPa | 104.9 mm | - | 17 W/m² | - |
| 1778161782 | 20° C | 99% | 1011.7 hPa | 6.1 mm | - | 18 W/m² | - |
| 1778161478 | 20° C | 99% | 1011.7 hPa | 29.46 mm | - | 16 W/m² | - |
| 1778161169 | 20° C | 99% | 1011.1 hPa | 38.35 mm | - | 11 W/m² | - |
| 1778160865 | 20° C | 99% | 1012.1 hPa | 26.92 mm | - | 10 W/m² | - |
| 1778160564 | 20° C | 99% | 1012.2 hPa | 14.99 mm | - | 10 W/m² | - |
| 1778160259 | 20° C | 99% | 1011.8 hPa | 7.87 mm | - | 6 W/m² | - |
| 1778159956 | 20° C | 99% | 1011.8 hPa | 4.32 mm | - | 6 W/m² | - |
| 1778159653 | 20° C | 99% | 1011.3 hPa | 8.89 mm | - | 3 W/m² | - |
| 1778159350 | 19.44° C | 99% | 1010.7 hPa | 7.87 mm | - | 7 W/m² | - |
| 1778159047 | 20° C | 99% | 1011.7 hPa | 3.05 mm | - | 4 W/m² | - |
| 1778158746 | 20° C | 99% | 1011.6 hPa | 1.78 mm | - | 6 W/m² | - |
| 1778158444 | 20° C | 99% | 1011.3 hPa | 1.78 mm | - | 7 W/m² | - |
| 1778158141 | 20° C | 99% | 1011.3 hPa | 0 mm | - | 10 W/m² | - |
| 1778157836 | 20° C | 99% | 1011.4 hPa | 0 mm | - | 17 W/m² | - |
* Rain latest hour (hover to see other rain measurements)
** Current wind speed in m/s (hover to see current wind gust speed)